Location: Bidwell Hollow
(37.7387°N, 90.1707°W)
Time: 01:22:09
(UTC+00:00)

Vanguard 3 - Pass Details

Date: 14 May 2026
Orbit: 507 x 3204 km, 33.3° (Epoch: 6 June)

Event Time Altitude Azimuth Distance (km) Brightness Sun altitude
Rises 22:07:23 0° 265° (W) 7,068 13.0 32.8°
Reaches altitude 10° 22:12:03 10° 264° (W) 6,116 13.1 31.9°
Maximum altitude 22:31:41 76° 184° (S) 2,889 10.4 28.0°
Drops below altitude 10° 22:45:32 10° 101° (E) 4,524 10.5 25.3°
Sets 22:48:26 0° 100° (E) 5,224 10.7 24.7°
